Location: Paddlesworth
(51.1000°N, 1.1333°E)
Time: 08:35:50
(UTC+00:00)

BREEZE-M DEB (TANK) - Pass Details

Date: 11 May 2021
Orbit: 284 x 18730 km, 52.5° (Epoch: 20 June)

Event Time Altitude Azimuth Distance (km) Brightness Sun altitude
Rises 21:41:11 0° 261° (W) 7,425 8.9 -15.1°
Reaches altitude 10° 21:48:13 10° 263° (W) 4,392 7.7 -15.7°
Maximum altitude 21:56:38 77° 350° (N) 669 3.3 -16.3°
Drops below altitude 10° 21:59:21 10° 78° (ENE) 1,472 4.8 -16.5°
Enters shadow 21:59:25 - 78° (ENE) 1,502 4.9 -16.5°
